Location: Calvatone
(45.1167°N, 10.4333°E)
Time: 12:24:24
(UTC+00:00)

CSL-04 Debris - Visible Passes

Search period start: 25 September 2023 00:00
Search period end: 05 October 2023 00:00
Orbit: 824 x 846 km, 98.8° (Epoch: 24 September)

Date Brightness Start Highest point End Pass type
(mag) Time Alt. Az. Time Alt. Az. Time Alt. Az.
25 Sep 4.3 18:36:50 17° SE 18:40:52 54° ENE 18:46:10 10° N visible
25 Sep 6.2 20:18:31 15° SW 20:21:33 23° W 20:25:46 10° NW visible
26 Sep 4.7 18:20:21 15° SE 18:24:31 40° ENE 18:29:33 10° N visible
26 Sep 5.7 20:02:02 19° SW 20:04:57 31° W 20:09:44 10° NW visible
27 Sep 5.0 18:03:54 12° ESE 18:08:11 30° ENE 18:12:51 10° N visible
27 Sep 5.2 19:45:34 24° SSW 19:48:23 42° W 19:53:33 10° NNW visible
28 Sep 5.4 17:47:47 10° ESE 17:51:55 23° ENE 17:56:03 10° N visible
28 Sep 4.6 19:29:05 28° S 19:31:52 58° W 19:37:14 10° NNW visible
29 Sep 5.7 17:32:17 10° E 17:35:40 17° ENE 17:39:04 10° NNE visible
29 Sep 4.2 19:12:37 30° S 19:15:23 80° WSW 19:20:51 10° NNW visible
29 Sep 6.9 20:55:13 10° W 20:56:35 11° W 20:57:58 10° WNW visible
30 Sep 4.1 18:56:09 30° SSE 18:58:57 76° ENE 19:04:22 10° N visible
30 Sep 6.6 20:37:49 13° WSW 20:39:54 16° W 20:43:06 10° NW visible
01 Oct 4.2 18:39:40 27° SE 18:42:33 56° ENE 18:47:50 10° N visible
01 Oct 6.2 20:21:21 18° WSW 20:23:14 22° W 20:27:23 10° NW visible
02 Oct 4.6 18:23:11 22° ESE 18:26:10 41° ENE 18:31:13 10° N visible
02 Oct 5.8 20:04:52 25° SW 20:06:38 30° W 20:11:21 10° NW visible
03 Oct 5.0 18:06:42 18° ESE 18:09:50 31° ENE 18:14:31 10° N visible
03 Oct 5.2 19:48:23 32° SW 19:50:03 41° W 19:55:10 10° NNW visible
04 Oct 5.3 17:50:14 13° ESE 17:53:33 23° ENE 17:57:42 10° N visible
04 Oct 4.7 19:31:54 41° SSW 19:33:32 56° W 19:38:52 10° NNW visible
